Content
SEND FEEDBACK

Daily
Averages
Monthly
Summary
United Kingdom

FROGMORE, ENGLAND


Home > Europe > United Kingdom > England
Elevation: 276 feet     Latitude: 51 42N     Longitude: 000 18W

WEATHER
 
SELECT A DAY
Number of Records: 148,849;   Date Range: 7/1/96 - 7/29/14
 
SHARE

PRINT THIS DATA

[ ← Previous Day ]
WEATHER ALMANAC - JANUARY 31, 2013
[ Next Day → ]
[ °C ]   °F
Weather ElementAverageHighLow
Temperature48.1 °F50 °F (6:50 am)44 °F (2:50 am)
Dewpoint37.1 °F42 °F (5:50 am)32 °F (3:50 pm)
Humidity63.8 %76 % (1:50 am)43 % (2:50 pm)
Barometer29.87 in29.98 in (1:50 am)29.80 in (5:50 am)
Wind Speed17.4 mph26.5 mph (12:50 pm)
Wind Gust41.4 mph (12:50 pm)
Weather ElementAverage
Visibility8.8 mi
Wind DirectionWSW (247.7 °)

Weather ElementTotal
Precipitation---
Heating Degree Days18 (Base 65)
Averaged from 31 records on January 31, 2013
WEATHER CONDITIONS BREAKOUT
WIND DIRECTION BREAKOUT
WEATHER BY HOUR - JANUARY 31, 2013
[ °C ]   °F
Local TimeTemperatureDewpointHumidityBarometerVisibilityWind DirectionWind SpeedGust SpeedPrecipitationEventsConditions
1:50 AM44.6 °F37.4 °F76 %29.98 in6.2 miSW (230°)12.7 mphScattered Clouds
2:50 AM44.0 °F38.0 °F73 %29.97 in16.0 miSW (220°)11.5 mphPartly Cloudy
2:50 AM44.6 °F37.4 °F76 %29.95 in6.2 miSW (220°)11.5 mphScattered Clouds
3:50 AM46.4 °F39.2 °F76 %29.89 in6.2 miSSW (200°)10.4 mphMostly Cloudy
4:50 AM48.2 °F39.2 °F71 %29.86 in6.2 miSW (230°)18.4 mph29.9 mphMostly Cloudy
5:50 AM49.0 °F42.0 °F67 %29.82 in11.0 miSW (230°)17.3 mphRainLight Rain
5:50 AM48.2 °F41.0 °F76 %29.80 in6.2 miSW (230°)17.3 mphRainLight Rain
6:50 AM50.0 °F39.2 °F66 %29.80 in6.2 miWSW (250°)24.2 mph36.8 mphMostly Cloudy
7:50 AM48.2 °F41.0 °F76 %29.80 in6.2 miWSW (240°)16.1 mphPartly Cloudy
8:50 AM49.0 °F39.0 °F59 %29.81 in19.0 miWSW (250°)18.4 mphPartly Cloudy
8:50 AM50.0 °F39.2 °F66 %29.80 in6.2 miWSW (250°)18.4 mphPartly Cloudy
9:50 AM50.0 °F37.4 °F62 %29.80 in6.2 miWest (260°)20.7 mphRainRain
10:50 AM48.2 °F35.6 °F62 %29.83 in6.2 miWest (260°)23.0 mphScattered Clouds
11:50 AM50.0 °F38.0 °F53 %29.85 in17.0 miWest (260°)25.3 mphPartly Cloudy
11:50 AM50.0 °F37.4 °F62 %29.83 in6.2 miWest (260°)25.3 mphScattered Clouds
12:50 PM50.0 °F37.4 °F62 %29.86 in6.2 miWest (270°)26.5 mph41.4 mphPartly Cloudy
1:50 PM50.0 °F35.6 °F58 %29.86 in6.2 miWest (260°)23.0 mph35.7 mphScattered Clouds
2:50 PM50.0 °F34.0 °F43 %29.88 in19.0 miWest (270°)20.7 mphPartly Cloudy
2:50 PM50.0 °F33.8 °F54 %29.86 in6.2 miWest (270°)20.7 mphScattered Clouds
3:50 PM50.0 °F32.0 °F50 %29.89 in6.2 miWest (260°)21.9 mphMostly Cloudy
4:50 PM50.0 °F33.8 °F54 %29.89 in6.2 miWest (260°)19.6 mphMostly Cloudy
5:50 PM48.0 °F34.0 °F47 %29.91 in17.0 miWest (260°)18.4 mphPartly Cloudy
5:50 PM48.2 °F33.8 °F58 %29.89 in6.2 miWest (260°)18.4 mphMostly Cloudy
6:50 PM48.2 °F35.6 °F62 %29.89 in6.2 miWest (260°)17.3 mphMostly Cloudy
7:50 PM46.4 °F35.6 °F66 %29.89 in6.2 miWSW (240°)10.4 mphMostly Cloudy
8:50 PM47.0 °F37.0 °F57 %29.92 in16.0 miWSW (250°)11.5 mphRainLight Rain Showers
8:50 PM46.4 °F37.4 °F71 %29.92 in6.2 miWSW (250°)11.5 mphMostly Cloudy
9:50 PM46.4 °F37.4 °F71 %29.89 in6.2 miWSW (240°)9.2 mphMostly Cloudy
10:50 PM46.4 °F37.4 °F71 %29.86 in6.2 miWSW (240°)13.8 mphMostly Cloudy
11:50 PM46.0 °F37.0 °F63 %29.86 in16.0 miWSW (250°)12.7 mphRainLight Rain Showers
11:50 PM46.4 °F37.4 °F71 %29.86 in6.2 miWSW (250°)12.7 mphMostly Cloudy
Hourly data recorded from EGWU, located miles away from Frogmore, England







STORIES FROM OUR PARTNERS